TimeCDT,TemperatureF,Dew PointF,Humidity,Sea Level PressureIn,VisibilityMPH,Wind Direction,Wind SpeedMPH,Gust SpeedMPH,PrecipitationIn,Events,Conditions,WindDirDegrees,DateUTC
12:52 AM,64,42,33,29.66,6,WSW,2.2,,,,Overcast,240,2013-04-23 05:52:00
3:54 AM,59,40,38,29.69,6,Calm,Calm,,,,Clear,,2013-04-23 08:54:00
6:03 AM,55.4,30.2,38,30.12,14.0,South,3.5,-,N/A,,Scattered Clouds,190,2013-04-23 11:03:00
6:42 AM,53.6,28.4,38,29.74,10.0,South,4.6,-,N/A,,Scattered Clouds,180,2013-04-23 11:42:00
6:53 AM,55,27,22,29.73,6,Calm,Calm,,,,Overcast,,2013-04-23 11:53:00
7:40 AM,46.4,26.6,46,30.14,12.0,SSE,3.5,-,N/A,,Mostly Cloudy,150,2013-04-23 12:40:00
8:41 AM,51.8,28.4,41,30.16,14.0,SSW,3.5,-,N/A,,Overcast,200,2013-04-23 13:41:00
9:42 AM,60.8,19.4,20,29.79,14.0,South,3.5,-,N/A,,Overcast,170,2013-04-23 14:42:00
9:58 AM,65,19,8,29.86,25,Calm,Calm,,,,Overcast,,2013-04-23 14:58:00
10:40 AM,66.2,6.8,10,30.18,14.0,SSW,3.5,-,N/A,,Overcast,200,2013-04-23 15:40:00
11:41 AM,69.8,6.8,9,30.16,14.0,SSE,4.6,-,N/A,,Mostly Cloudy,150,2013-04-23 16:41:00
12:44 PM,77.0,-7.6,4,30.14,14.0,WSW,12.7,-,N/A,,Mostly Cloudy,240,2013-04-23 17:44:00
12:50 PM,79,11,4,29.79,31,SW,6.7,,,,Scattered Clouds,230,2013-04-23 17:50:00
1:43 PM,78.8,-9.4,4,30.11,14.0,SSW,17.3,-,N/A,,Overcast,210,2013-04-23 18:43:00
2:43 PM,80.6,-9.4,4,30.08,14.0,SSW,20.7,-,N/A,,Overcast,210,2013-04-23 19:43:00
3:48 PM,80.6,-9.4,4,30.07,14.0,SSW,18.4,-,N/A,,Overcast,210,2013-04-23 20:48:00
3:50 PM,80,0,4,29.68,31,SW,6.7,,,,Overcast,230,2013-04-23 20:50:00
4:41 PM,82.4,-11.2,4,30.04,14.0,SW,20.7,-,N/A,,Mostly Cloudy,220,2013-04-23 21:41:00
5:40 PM,82.4,-4.0,4,30.04,14.0,SW,17.3,-,N/A,,Mostly Cloudy,230,2013-04-23 22:40:00
6:47 PM,80.6,-2.2,4,30.04,14.0,WSW,11.5,-,N/A,,Mostly Cloudy,240,2013-04-23 23:47:00
6:50 PM,83,31,8,29.57,25,WSW,8.9,,,,Partly Cloudy,240,2013-04-23 23:50:00
7:40 PM,78.8,1.4,5,30.06,14.0,WSW,12.7,-,N/A,,Overcast,240,2013-04-24 00:40:00
8:45 PM,73.4,6.8,8,30.09,14.0,SSW,11.5,-,N/A,,Mostly Cloudy,210,2013-04-24 01:45:00
9:40 PM,71.6,8.6,9,29.76,10.0,SSW,18.4,-,N/A,,Mostly Cloudy,210,2013-04-24 02:40:00
9:50 PM,72,29,11,29.61,6,WSW,6.7,,,,Mostly Cloudy,240,2013-04-24 02:50:00